Regional Weather Roundup
Issued by NWS

Home | Current Version | Previous Version | Graphics & Text | Print | Product List | Glossary On
Versions: 1 2 3 4 5 6 7 8 9 10 11 12 13 14 15 16 17 18 19 20 21 22 23 24 25 26 27
000
ASUS45 KBOU 242207
RWRCO

WEATHER ROUNDUP FOR COLORADO
NATIONAL WEATHER SERVICE DENVER/BOULDER CO
400 PM MDT TUE MAY 24 2016

NOTE: "FAIR" INDICATES FEW OR NO CLOUDS BELOW 12000 FEET WITH NO
SIGNIFICANT WEATHER AND/OR OBSTRUCTIONS TO VISIBILITY.

COZ001>005-013-030-031-242300-
...NORTHWEST COLORADO...

CITY           SKY/WX    TMP DP  RH WIND       PRES   REMARKS
CRAIG          PTSUNNY   67  24  19 S20G30    29.86S
HAYDEN         FAIR      66  25  20 W9        29.87F
MEEKER         FAIR      72  20  14 SW29G39   29.86F
MOUNT WERNER   NOT AVBL
STEAMBOAT SPGS FAIR      66  24  20 SW15      29.88F
WALDEN         FAIR      61  18  18 SW16G29   29.97S
$$

COZ006>008-011-242300-
...WEST CENTRAL VALLEYS...

CITY           SKY/WX    TMP DP  RH WIND       PRES   REMARKS
GRAND JUNCTION FAIR      77  18  11 SW22G35   29.81F
MONTROSE       FAIR      76  19  11 SW26G35   29.88R
EAGLE          SUNNY     73  19  13 SW24G35   29.87F
RIFLE          FAIR      76  21  12 SW18G37   29.84S
DELTA          FAIR      80  16   9 SW23G32   29.85S
NUCLA          FAIR      73  14  10 SW24G35   29.94S
$$

COZ017>023-064>068-242300-
...SOUTHWEST COLORADO...

CITY           SKY/WX    TMP DP  RH WIND       PRES   REMARKS
DURANGO        FAIR      68  15  13 S15G29    30.00F
CORTEZ         FAIR      74  12   9 SW26G37   29.95F
PAGOSA SPRINGS PTSUNNY   66  16  14 SW18G24   30.06F
TELLURIDE      PTSUNNY   58  15  18 S13G30    30.10S
WOLF CREEK PAS CLOUDY    37  19  48 SW26G41   30.29F
$$

COZ009-010-012-014-032>034-037-058>063-242300-
...CENTRAL COLORADO...

CITY           SKY/WX    TMP DP  RH WIND       PRES   REMARKS
ASPEN          FAIR      67  22  18 W12G21    29.94R
BUENA VISTA    FAIR      69   8   9 SW25G31   29.95S
COPPER MTN     NOT AVBL
BERTHOUD PASS  CLOUDY    34  27  75 SE17G31   30.23R THUNDER WCI  23
COTTONWOOD PAS PTSUNNY   63  -2   7 S14G23    30.07S
GUNNISON       FAIR      66  14  13 SW17G26   29.99R
KREMMLING      PTSUNNY   70  10  10 S9G21     29.90F
LEADVILLE      FAIR      56   7  14 S20G36    30.05S
MONARCH PASS   FAIR      43  14  31 SW35G53   30.29S
SALIDA         FAIR      71  11  10 S9G25     30.01F
SUNLIGHT       PTSUNNY   52  23  32 CALM      30.15S
WILKERSON PASS PTSUNNY   54  19  26 SW6G24    30.18S
$$

COZ069>075-242300-
...SAN LUIS VALLEY/SANGRE DE CRISTO MOUNTAINS...

CITY           SKY/WX    TMP DP  RH WIND       PRES   REMARKS
ALAMOSA        FAIR      71  16  12 SW22G33   30.00F
LA VETA PASS   PTSUNNY   59  21  23 S14G24    30.16F
SAGUACHE       FAIR      68  18  14 S14G32    30.01S
$$

COZ035-036-038>040-242300-
...NORTHERN COLORADO FRONT RANGE...

CITY           SKY/WX    TMP DP  RH WIND       PRES   REMARKS
DENVER INTL AP TSTM      63  50  62 NE14G22   29.82F
DMNS CITY PARK   N/A     73  47  39 N14G21    29.83S
AURORA         PTSUNNY   66  42  41 NE9       29.84R
FRONT RANGE AP TSTM      64  46  52 N26G38    29.80F
ERIE MUNI ARPT LGT RAIN  64  49  57 CALM      29.84F
BOULDER MUN AP FAIR      70  46  43 E8        29.84F
CENTENNIAL     PTSUNNY   71  42  35 W13G24    29.84R
BROOMFIELD     PTSUNNY   63  50  63 N8        29.87F
FORT COLLINS   FAIR      55  48  76 E12       29.85F
LONGMONT       FAIR      76  47  36 E6        29.85F
$$

COZ041-046-047-076>085-087-088-242300-
...PIKES PEAK/PALMER DIVIDE AND SOUTHERN FOOTHILLS...

CITY           SKY/WX    TMP DP  RH WIND       PRES   REMARKS
COLO. SPRINGS  FAIR      74  38  27 S15G22    29.91F
A. F. ACADEMY  FAIR      70  37  30 S17G28    29.90F
SCHRIEVER AFB  NOT AVBL
ELLICOTT       FAIR     N/A N/A N/A S18G24    29.90F
FALCON         FAIR      71  34  25 MISG      29.95F
FORT CARSON    FAIR      74  43  32 S8G23     29.88F
LIMON          FAIR      73  49  42 SE18G29   29.87F
MONUMENT HILL  FAIR      68  36  30 S25G31    29.93F
TRINIDAD       FAIR      78  21  12 S17G25    29.86F
$$

COZ042>045-048>051-090-091-242300-
...NORTHEAST COLORADO...

CITY           SKY/WX    TMP DP  RH WIND       PRES   REMARKS
GREELEY ARPT   FAIR      64  54  68 S16       29.86R THUNDER
AKRON          FAIR      71  53  52 SE18      29.86F
BURLINGTON     FAIR      78  52  40 S16G28    29.85F
WRAY           NOT AVBL
STERLING       FAIR      73  54  49 S15G24    29.82F
HOLYOKE        FAIR      79  55  44 S20G25    29.84F
FORT MORGAN    PTSUNNY   68  50  51 SE9       29.85F
$$

COZ086-089-092>099-242300-
...SOUTHEAST COLORADO...

CITY           SKY/WX    TMP DP  RH WIND       PRES   REMARKS
PUEBLO         FAIR      83  38  20 S21G28    29.81F
LA JUNTA       FAIR      85  39  19 E12G22    29.80F
LAMAR          FAIR      87  47  24 SE12      29.78F
SPRINGFIELD      N/A     85  36  17 S14G32    29.82F
$$




USA.gov is the U.S. government's official web portal to all federal, state and local government web resources and services.